Location: Peterborough
(44.3091°N, 78.3197°W)
Time: 07:22:03
(UTC-05:00)

A-11 Canister half - Pass Details

Date: 15 December 2023
Orbit: 1512 x 1687 km, 47.2° (Epoch: 25 February)

Event Time Altitude Azimuth Distance (km) Brightness Sun altitude
Rises 20:33:08 0° 214° (SW) 4,647 11.8 -41.6°
Reaches altitude 10° 20:36:17 10° 209° (SSW) 3,678 11.1 -42.2°
Enters shadow 20:39:08 22° 199° (SSW) 2,874 10.4 -42.7°
